Weather History for McComb, MS

Change the Weather History Date:

Wednesday, October 9, 2013

  Actual Average Record
Temperature  
Mean Temperature 66 °F -  
Max Temperature 82 °F 80 °F 92 °F (1963)
Min Temperature 52 °F 55 °F 36 °F (2000)
Cooling Degree Days 2    
Growing Degree Days 16 (Base 50)    
Moisture  
Dew Point 57 °F    
Average Humidity 75    
Maximum Humidity 94    
Minimum Humidity 44    
Precipitation  
Precipitation 0.00 in - - ()
Sea Level Pressure  
Sea Level Pressure 30.06 in    
Wind  
Wind Speed 1 mph (East)    
Max Wind Speed 7 mph    
Max Gust Speed -    
Visibility 9 miles    
Events      
Averages and records for this station are not official NWS values.
T = Trace of Precipitation, MM = Missing Value Source: NWS Daily Summary

Daily Weather History Graph

Daily Weather History Graph

Search for Another Location

Airport:

Trip Planner

Search our weather history database for the weather conditions in past years. The results will help you decide how hot, cold, wet, or windy it might be!

Date:

Astronomy

Oct. 09, 2013 Rise Set
Actual Time 7:00 AM CDT 6:36 PM CDT
Civil Twilight 6:36 AM CDT 7:01 PM CDT
Nautical Twilight 6:08 AM CDT 7:29 PM CDT
Astronomical Twilight 5:40 AM CDT 7:57 PM CDT
Moon 11:41 AM CDT (10/9) 10:26 PM CDT (10/9)
Length of Visible Light 12h 24m
Length of Day
11h 35m
Waxing Crescent, 25% of the Moon is Illuminated
Oct 9
Waxing Crescent
Oct 11
First Quarter
Oct 18
Full
Oct 26
Last Quarter
Nov 3
New

Hourly Weather History & Observations

Time (CDT) Temp. Heat Index Dew Point Humidity Pressure Visibility Wind Dir Wind Speed Gust Speed Precip Events Conditions
12:53 AM 55.9 °F - 53.1 °F 90% 30.03 in 10.0 mi Calm Calm - N/A   Clear
1:53 AM 54.0 °F - 52.0 °F 93% 30.04 in 10.0 mi Calm Calm - N/A   Clear
2:53 AM 55.9 °F - 52.0 °F 87% 30.03 in 10.0 mi Calm Calm - N/A   Clear
3:53 AM 54.0 °F - 51.1 °F 90% 30.01 in 10.0 mi Calm Calm - N/A   Clear
4:53 AM 53.1 °F - 51.1 °F 93% 30.02 in 10.0 mi Calm Calm - N/A   Clear
5:53 AM 53.1 °F - 51.1 °F 93% 30.04 in 10.0 mi Calm Calm - N/A   Clear
6:53 AM 52.0 °F - 50.0 °F 93% 30.05 in 10.0 mi Calm Calm - N/A   Clear
7:53 AM 55.9 °F - 53.1 °F 90% 30.07 in 10.0 mi Calm Calm - N/A   Clear
8:53 AM 64.0 °F - 57.0 °F 78% 30.09 in 10.0 mi ENE 3.5 mph - N/A   Clear
9:53 AM 69.1 °F - 57.9 °F 68% 30.10 in 10.0 mi Calm Calm - N/A   Clear
10:53 AM 73.9 °F - 55.9 °F 53% 30.11 in 10.0 mi Variable 3.5 mph - N/A   Partly Cloudy
11:53 AM 75.0 °F - 57.9 °F 55% 30.10 in 10.0 mi South 6.9 mph - N/A   Clear
12:53 PM 77.0 °F - 57.0 °F 50% 30.09 in 10.0 mi ESE 4.6 mph - N/A   Clear
1:53 PM 79.0 °F - 57.0 °F 47% 30.06 in 10.0 mi Calm Calm - N/A   Clear
2:53 PM 81.0 °F 81.1 °F 57.9 °F 45% 30.04 in 10.0 mi South 3.5 mph - N/A   Clear
3:53 PM 80.1 °F 80.4 °F 57.0 °F 45% 30.03 in 10.0 mi Variable 4.6 mph - N/A   Unknown
4:53 PM 81.0 °F 81.0 °F 57.0 °F 44% 30.03 in 10.0 mi ENE 4.6 mph - N/A   Partly Cloudy
5:53 PM 79.0 °F - 57.9 °F 48% 30.02 in 10.0 mi Calm Calm - N/A   Clear
6:53 PM 72.0 °F - 63.0 °F 73% 30.04 in 10.0 mi ENE 5.8 mph - N/A   Scattered Clouds
7:53 PM 71.1 °F - 66.0 °F 84% 30.05 in 10.0 mi ENE 3.5 mph - N/A   Clear
8:53 PM 68.0 °F - 64.9 °F 90% 30.06 in 7.0 mi East 3.5 mph - N/A   Clear
9:53 PM 66.9 °F - 64.0 °F 90% 30.07 in 7.0 mi Variable 3.5 mph - N/A   Clear
10:31 PM 66.2 °F - 64.4 °F 94% 30.09 in 6.0 mi Calm Calm - N/A   Mostly Cloudy
10:53 PM 66.0 °F - 64.0 °F 93% 30.08 in 6.0 mi East 3.5 mph - N/A   Overcast
11:53 PM 66.9 °F - 64.0 °F 90% 30.08 in 6.0 mi East 4.6 mph - N/A   Overcast